Binghamton, NY

8:24 PM EST on November 13, 2019 (GMT -0500)
Binghamton Regional-Link

Weather History for KBGM - September, 2019

Change the Weather History Date:

Wednesday, September 25, 2019

  Actual Average Record
Temperature  
Mean Temperature 62 °F 56 °F  
Max Temperature 75 °F 65 °F 87 °F (2017)
Min Temperature 48 °F 47 °F 31 °F (1989)
Degree Days  
Heating Degree Days 3 9  
Month to date heating degree days 105 141  
Since 1 July heating degree days 142 204  
Cooling Degree Days 0 0  
Month to date cooling degree days 18 29  
Year to date cooling degree days 380 377  
Growing Degree Days 12 (Base 50)    
Moisture  
Dew Point 50 °F    
Average Humidity 69    
Maximum Humidity 93    
Minimum Humidity 44    
Precipitation  
Precipitation 0.00 in 0.12 in 2.83 in (1975)
Month to date precipitation 1.66 3.00  
Year to date precipitation 30.45 29.21  
Snow  
Snow 0.00 in 0.00 in 0.00 in (2002)
Month to date snowfall 0.0 0.0  
Since 1 July snowfall 0.0 0.0  
Since 1 September snowfall 0.0 0.0  
Snow Depth 0.00 in    
Sea Level Pressure  
Sea Level Pressure 29.87 in    
Wind  
Wind Speed 6 mph (SW)    
Max Wind Speed 13 mph    
Max Gust Speed 17 mph    
Visibility 10 miles    
Events      
T = Trace of Precipitation, MM = Missing Value Source: NWS Daily Summary

Daily Weather History Graph

Daily Weather History Graph

Search for Another Location

Airport or City:

Astronomy

Sep. 25, 2019 Rise Set
Actual Time 6:54 AM EDT 6:56 PM EDT
Civil Twilight 6:26 AM EDT 7:24 PM EDT
Nautical Twilight 5:53 AM EDT 7:56 PM EDT
Astronomical Twilight 5:20 AM EDT 8:29 PM EDT
Moon 2:39 AM EDT (9/25) 5:31 PM EDT (9/25)
Length of Visible Light 12h 57m
Length of Day
12h 02m
Waning Crescent, 14% of the Moon is Illuminated
Sep 25
Waning Crescent
Sep 28
New
Oct 5
First Quarter
Oct 13
Full
Oct 21
Last Quarter

Hourly Weather History & Observations

Time (EDT) Temp. Dew Point Humidity Pressure Visibility Wind Dir Wind Speed Gust Speed Precip Events Conditions
12:53 AM 51.1 °F 46.9 °F 86% 29.89 in 10.0 mi SW 3.5 mph - N/A   Mostly Cloudy
1:53 AM 51.1 °F 48.0 °F 89% 29.88 in 10.0 mi Calm Calm - N/A   Mostly Cloudy
2:50 AM 51.8 °F 48.2 °F 88% 29.88 in 10.0 mi WSW 5.8 mph - N/A   Mostly Cloudy
2:53 AM 52.0 °F 48.0 °F 86% 29.88 in 10.0 mi WSW 5.8 mph - N/A   Mostly Cloudy
3:14 AM 50.0 °F 48.0 °F 93% 29.90 in 10.0 mi West 3.5 mph - N/A   Mostly Cloudy
3:21 AM 50.0 °F 48.0 °F 93% 29.89 in 10.0 mi Calm Calm - N/A   Scattered Clouds
3:53 AM 50.0 °F 46.9 °F 89% 29.90 in 10.0 mi WSW 4.6 mph - N/A   Clear
4:53 AM 50.0 °F 48.0 °F 93% 29.90 in 10.0 mi WSW 5.8 mph - N/A   Scattered Clouds
5:53 AM 48.0 °F 46.0 °F 93% 29.91 in 10.0 mi WSW 4.6 mph - N/A   Clear
6:53 AM 48.0 °F 46.0 °F 93% 29.92 in 10.0 mi WSW 6.9 mph - N/A   Clear
7:53 AM 51.1 °F 48.0 °F 89% 29.92 in 10.0 mi WSW 3.5 mph - N/A   Clear
8:53 AM 54.0 °F 48.9 °F 83% 29.91 in 10.0 mi WSW 5.8 mph - N/A   Clear
9:53 AM 57.0 °F 50.0 °F 77% 29.92 in 10.0 mi WSW 5.8 mph - N/A   Clear
10:53 AM 62.1 °F 52.0 °F 70% 29.91 in 10.0 mi Variable 4.6 mph - N/A   Clear
11:53 AM 66.9 °F 51.1 °F 57% 29.90 in 10.0 mi WNW 3.5 mph - N/A   Clear
12:53 PM 68.0 °F 50.0 °F 52% 29.88 in 10.0 mi North - - N/A   Clear
1:53 PM 73.0 °F 50.0 °F 44% 29.86 in 10.0 mi West 11.5 mph - N/A   Clear
2:53 PM 72.0 °F 52.0 °F 49% 29.84 in 10.0 mi Variable 6.9 mph - N/A   Scattered Clouds
3:53 PM 72.0 °F 52.0 °F 49% 29.83 in 10.0 mi WSW 9.2 mph - N/A   Partly Cloudy
4:53 PM 72.0 °F 53.1 °F 51% 29.83 in 10.0 mi SW 10.4 mph - N/A   Partly Cloudy
5:53 PM 71.1 °F 53.1 °F 53% 29.83 in 10.0 mi SW 6.9 mph - N/A   Clear
6:53 PM 66.9 °F 53.1 °F 61% 29.83 in 10.0 mi SSW 4.6 mph - N/A   Clear
7:53 PM 66.0 °F 53.1 °F 63% 29.84 in 10.0 mi SSW 6.9 mph - N/A   Clear
8:53 PM 64.0 °F 53.1 °F 67% 29.85 in 10.0 mi SSW 6.9 mph - N/A   Clear
9:53 PM 64.0 °F 52.0 °F 65% 29.85 in 10.0 mi SSW 8.1 mph - N/A   Clear
10:53 PM 64.0 °F 52.0 °F 65% 29.84 in 10.0 mi SSW 5.8 mph - N/A   Overcast
11:53 PM 64.0 °F 50.0 °F 60% 29.82 in 10.0 mi SSW 8.1 mph - N/A   Overcast